Temperature
18 18 18 19 18 18 18 19 19 19 19 19 19 19 18 18 18 18 18 18 18 18 19 19 18 18 18 18 18 18 18 18 18 18 17 17 17 18 18 18 18 18 17
18 18 18 18 18 18 18 18 19 19 19 18 19 19 19 18 18 18 18 18 18 18 18 19 18 18 18 18 18 18 18 18 18 17 17 17 17 17 17 17 17 17 17
18 18 18 18 18 18 18 18 18 18 18 18 19 19 19 19 19 18 19 19 19 18 18 18 18 18 18 18 18 18 18 17 17 17 17 17 17 17 17 17 17 17 17
17 17 18 18 18 18 18 18 18 18 18 18 19 19 19 19 19 19 19 19 19 18 18 18 18 18 18 18 18 18 17 17 17 17 17 17 17 17 17 17 17 17 17
17 17 17 18 18 18 18 18 18 18 18 18 19 19 19 19 19 19 19 19 19 18 18 18 18 18 18 18 17 17 17 17 17 17 17 17 17 17 17 17 17 17 16
16 16 17 17 17 17 17 18 18 18 18 18 18 18 19 19 19 19 19 19 19 18 18 18 18 18 18 18 18 17 17 17 17 17 17 17 17 17 17 17 16 16 16
16 16 16 16 17 17 17 17 17 17 17 18 18 18 18 19 19 19 19 19 19 18 18 18 18 18 18 18 18 17 17 17 17 17 17 17 17 17 17 16 16 16 16
15 15 16 16 16 16 17 17 17 17 17 17 17 17 18 18 18 18 19 19 18 18 18 18 18 18 18 18 18 18 17 17 17 17 17 17 17 16 16 16 16 16 16
15 15 15 16 16 16 16 17 17 17 17 17 17 17 17 18 18 18 18 18 18 18 18 18 18 18 18 18 18 18 18 17 17 17 17 17 17 16 16 16 16 16 16
15 15 15 15 16 16 16 16 16 16 16 17 17 17 17 18 18 18 18 18 18 18 18 18 18 18 18 18 18 18 18 17 17 17 17 17 17 16 16 16 16 16 16
14 14 15 15 15 16 16 16 16 16 16 16 16 17 17 17 17 18 18 18 18 18 17 18 18 18 18 17 17 17 17 17 17 17 17 17 17 17 16 16 16 16 16
14 14 14 15 15 15 15 16 16 16 16 16 16 16 16 16 17 17 17 17 17 17 17 17 17 17 18 17 17 17 17 17 17 17 17 17 16 16 16 16 16 16 15
14 14 14 14 15 15 15 15 16 16 16 16 16 16 16 16 16 16 16 17 17 17 17 17 17 17 17 17 17 17 17 17 17 17 16 16 16 16 16 16 15 15 15
13 13 14 14 14 14 15 15 15 15 15 16 16 16 16 16 16 16 16 16 16 16 16 16 16 17 17 17 17 17 16 16 16 16 16 16 16 16 15 15 15 15 15
13 13 13 14 14 14 14 14 15 15 15 15 15 15 15 16 15 16 16 16 15 15 16 16 16 16 16 16 16 16 16 16 16 16 16 16 15 15 15 15 15 15 14
12 13 13 13 13 14 14 14 14 15 15 15 15 15 15 15 15 15 15 15 15 15 15 16 16 16 16 16 16 16 16 15 15 15 15 15 15 15 15 15 14 14 14
12 13 13 13 13 13 13 14 14 14 14 14 15 15 15 15 15 15 15 15 15 15 15 15 15 15 15 15 15 15 15 15 15 15 15 15 14 14 14 14 14 14 14
12 12 12 13 13 13 13 13 14 14 14 14 14 14 14 14 14 15 15 15 15 15 14 15 15 15 15 15 15 15 15 15 15 14 14 14 14 14 14 14 14 14 14
12 12 12 12 13 13 13 13 13 13 14 14 14 14 14 14 14 14 14 14 14 14 14 14 14 14 14 14 14 14 14 14 14 14 14 14 14 14 14 13 13 13 13
11 11 12 12 12 12 12 13 13 13 13 13 13 13 14 14 14 14 14 14 14 14 14 14 14 14 14 14 14 14 13 13 13 13 13 13 13 13 13 13 13 13 13
11 11 11 11 12 12 12 12 12 13 13 13 13 13 13 13 13 14 14 13 14 14 14 13 14 13 13 13 13 13 13 13 13 13 13 13 13 13 13 13 13 13 13
10 11 11 11 11 11 11 12 12 12 12 13 13 13 13 13 13 13 13 13 13 13 13 13 13 13 13 13 13 13 13 13 12 12 12 12 12 12 12 12 12 12 12
10 10 10 10 11 11 11 11 11 12 12 12 12 12 13 13 13 13 13 13 13 13 13 13 13 13 13 13 13 13 13 13 13 12 12 12 11 11 11 11 11 11 11
10 10 10 10 10 10 10 11 11 11 11 12 12 12 12 12 12 13 13 13 13 13 13 13 13 13 13 13 13 13 13 13 12 12 12 11 11 11 11 11 11 11 10
9 9 9 10 10 10 10 10 10 11 11 11 11 12 12 12 12 12 12 12 12 12 13 13 13 13 13 13 13 13 13 12 12 11 11 12 11 10 10 10 10 10 10
9 9 9 9 10 10 10 10 10 10 11 11 11 11 12 12 12 12 12 12 12 12 12 13 13 13 13 13 13 13 13 13 12 11 11 11 11 10 10 9 9 9 9
Wind_Speed
5 4 4 6 8 9 8 6 6 7 7 8 9 9 8 9 10 12 13 17 16 14 13 12 11 10 9 8 8 8 8 8 8 9 9 10 10 10 9 8 8 7 7
4 4 4 4 6 9 9 7 6 5 6 6 7 8 8 10 11 13 14 16 17 15 14 13 12 11 10 9 9 9 8 8 8 9 9 9 9 9 9 8 7 6 5
5 4 4 5 5 9 9 7 6 5 5 7 9 9 7 9 12 13 14 14 15 15 15 14 13 12 12 11 10 9 9 9 9 9 9 9 9 9 9 8 7 6 5
7 4 5 5 6 7 5 6 5 5 5 5 6 6 7 8 11 13 13 13 14 13 15 15 14 14 13 12 11 11 10 10 10 10 9 10 10 9 9 8 7 6 5
7 5 5 5 6 4 5 6 5 4 4 5 4 4 5 8 10 11 10 12 14 14 14 15 16 15 14 13 13 12 12 11 11 10 10 10 10 9 8 8 7 6 5
7 5 4 5 4 4 5 5 5 5 4 4 3 3 3 5 7 9 10 10 12 13 15 14 15 14 15 15 14 14 13 13 12 11 11 10 10 9 8 8 7 6 5
7 5 5 5 5 5 6 6 5 6 5 3 2 1 1 1 4 6 7 7 8 12 14 14 14 14 14 15 15 15 14 14 13 12 11 11 10 9 9 8 7 6 4
7 6 6 6 6 5 6 7 5 5 5 5 4 3 1 1 1 2 4 6 8 8 9 13 13 14 14 14 15 16 15 15 14 13 12 11 11 9 8 8 6 5 4
6 6 6 7 7 7 7 7 7 8 6 5 4 4 5 5 3 1 2 4 5 6 7 8 11 14 15 14 15 17 17 16 15 14 13 12 11 10 9 8 7 5 5
6 6 6 7 7 7 7 8 7 6 6 5 4 3 2 4 4 3 1 2 4 5 6 6 8 12 15 15 16 17 18 18 16 15 14 13 12 10 9 8 7 7 6
5 5 5 6 7 7 8 8 7 8 7 6 5 4 3 1 2 3 3 3 2 3 4 5 5 8 14 15 15 17 20 20 18 16 15 14 13 11 10 9 8 8 8
5 5 5 5 6 6 7 8 9 9 8 8 6 5 5 4 4 3 3 3 3 3 2 3 4 5 11 15 17 20 22 21 20 18 16 15 14 12 11 10 9 9 8
5 6 5 4 5 5 6 6 7 8 8 9 9 7 6 5 4 4 4 3 2 2 2 2 2 4 8 12 15 20 22 22 20 19 18 16 15 13 12 11 10 9 9
6 7 5 4 4 3 4 4 4 6 7 9 10 9 7 7 6 6 5 5 3 2 2 3 2 3 6 10 13 18 17 20 20 19 18 17 15 13 12 11 10 10 9
6 7 6 6 6 5 2 1 3 4 5 7 8 10 8 8 7 6 5 5 6 6 5 4 3 3 5 8 13 15 14 18 19 18 18 17 15 14 12 11 9 9 8
8 8 8 8 8 7 5 3 1 1 3 4 5 7 7 6 7 6 6 6 5 5 5 4 4 3 4 6 12 14 14 17 18 18 17 17 15 14 12 11 10 9 8
9 9 9 9 9 9 8 5 3 2 0 1 3 5 6 5 6 6 6 6 6 5 4 3 2 2 4 5 7 9 11 12 13 16 16 15 14 13 11 10 9 9 8
9 9 9 9 9 9 8 7 6 4 2 1 2 4 4 5 5 5 5 6 6 5 5 5 3 3 3 5 6 6 6 8 9 13 14 13 12 12 11 10 10 9 8
8 8 8 9 9 8 8 8 6 5 3 2 1 3 4 5 5 4 5 6 5 5 4 5 4 2 2 3 5 5 6 5 8 10 11 12 12 12 11 11 11 10 9
7 8 8 8 8 8 8 7 7 6 5 4 3 3 3 4 5 5 5 6 5 5 5 6 5 3 3 4 5 6 6 5 6 9 12 13 15 14 13 12 12 12 12
7 7 7 8 8 7 8 8 6 6 5 5 4 3 2 4 6 6 5 5 6 5 5 5 5 4 4 5 6 5 7 8 6 6 8 8 11 10 11 12 12 13 14
6 7 7 7 8 8 12 12 8 5 5 5 5 4 4 4 5 6 7 8 8 7 6 5 4 5 5 5 5 8 9 8 5 5 7 7 6 7 8 10 13 15 15
6 6 7 7 8 10 14 13 11 6 5 4 4 4 4 4 5 4 6 6 5 6 7 6 6 6 6 6 8 9 9 6 6 7 7 6 5 6 8 11 14 14 14
4 5 5 6 7 10 15 13 11 7 6 5 5 4 4 3 3 5 6 6 5 4 3 4 5 5 5 7 8 8 9 9 9 6 4 4 3 4 6 9 11 12 13
4 4 4 5 7 9 14 14 10 5 5 6 5 5 4 4 5 7 7 7 6 4 5 6 6 6 9 12 12 11 11 12 8 4 3 4 4 4 3 3 7 9 10
4 4 4 5 6 7 13 14 10 4 5 5 5 6 6 5 5 6 6 6 6 4 4 6 6 6 7 10 13 11 11 11 8 4 3 4 5 4 3 1 2 5 7
Wind_Direction
220 217 221 215 210 208 206 211 218 227 236 243 243 237 222 215 203 191 194 193 184 180 178 176 174 172 170 166 163 158 152 146 145 147 146 146 145 145 144 141 138 135 132
221 212 221 223 217 209 208 212 216 218 230 236 240 234 221 203 197 191 191 191 187 184 182 181 182 180 178 177 174 168 164 160 156 155 155 155 155 155 153 152 150 148 143
226 213 217 223 221 214 209 214 225 222 237 241 241 233 216 197 189 190 188 186 187 188 186 186 186 185 185 185 182 178 172 169 165 163 164 164 164 163 163 164 165 164 162
238 218 217 224 220 211 200 204 211 217 236 243 242 230 208 186 183 186 185 186 186 187 190 191 190 190 190 190 188 185 180 177 175 172 171 171 172 173 174 176 177 178 180
252 232 226 224 213 206 204 210 207 199 217 230 231 223 196 179 178 183 184 188 189 188 187 193 193 193 194 194 192 190 187 185 182 180 178 176 177 179 181 182 182 187 196
256 244 237 232 217 211 208 205 199 196 204 211 220 215 200 184 175 181 187 187 191 191 189 191 194 197 199 196 196 194 192 191 188 186 183 182 181 182 184 186 191 199 205
261 240 240 237 223 217 214 206 195 191 203 193 157 228 332 211 183 184 183 180 187 190 189 192 194 194 197 199 198 194 195 193 192 190 188 186 185 185 188 190 191 194 199
269 255 235 232 225 223 222 210 197 194 200 186 166 151 176 318 270 199 177 178 185 184 186 195 196 195 194 193 198 196 194 193 193 192 190 187 185 186 188 186 185 185 185
270 260 246 236 230 219 224 215 202 196 198 198 189 164 163 201 215 238 188 173 170 170 183 189 196 199 198 195 195 198 194 192 192 191 187 184 182 183 181 179 176 172 165
277 268 255 245 238 226 223 221 211 199 185 191 198 205 179 158 160 186 218 179 165 164 178 187 194 199 200 196 197 196 193 191 190 188 185 181 179 179 178 177 176 170 159
290 281 263 251 244 233 224 218 211 203 195 188 183 175 182 172 157 155 176 182 164 167 169 178 186 195 198 194 195 197 193 191 189 187 184 182 181 180 179 178 175 171 164
308 303 287 265 252 239 231 222 213 208 204 196 190 182 174 174 182 170 163 170 180 186 177 180 176 185 191 191 196 197 194 191 190 187 184 183 183 182 181 179 176 174 170
322 314 309 293 268 248 235 224 213 211 204 200 198 200 196 195 175 166 160 159 161 169 174 202 202 184 182 183 192 194 194 192 191 190 187 185 185 185 184 182 180 176 176
327 329 330 331 324 291 249 223 215 214 209 208 207 202 202 204 196 188 174 162 161 175 188 195 201 198 181 178 184 185 191 193 193 191 190 188 186 185 185 185 185 181 177
354 356 360 3 3 358 339 241 215 215 208 207 206 203 204 205 201 196 180 172 171 184 201 194 189 202 188 175 176 179 185 195 195 194 193 192 189 188 186 184 180 175 172
5 7 13 13 11 9 4 359 302 247 203 203 196 196 198 196 192 191 188 185 181 175 188 189 188 181 180 172 177 175 182 192 196 196 196 194 191 188 184 181 176 172 168
14 18 18 19 19 15 10 11 12 26 105 181 176 185 191 183 184 189 186 184 183 170 173 171 162 154 159 160 156 163 175 185 194 194 193 190 186 182 176 173 167 161 157
16 19 20 22 21 18 11 15 17 18 30 90 154 162 172 173 168 176 180 183 182 171 165 164 158 152 156 163 153 149 153 165 168 181 181 176 172 168 163 158 152 148 147
16 17 19 18 13 11 12 10 13 16 20 27 92 137 151 150 159 167 173 174 174 167 155 154 154 144 129 138 132 125 121 118 133 141 145 144 143 141 141 138 134 132 132
15 12 12 10 4 1 7 9 11 17 26 31 59 102 131 147 156 159 166 166 161 156 151 149 146 139 129 133 137 135 127 116 115 113 111 112 113 112 115 118 120 122 121
13 5 8 6 1 3 7 9 9 17 29 39 48 65 110 137 150 153 156 157 153 149 149 148 146 141 141 150 152 142 137 123 104 112 109 101 100 95 96 105 112 116 115
359 4 7 4 6 8 10 19 22 21 27 44 50 50 76 93 122 134 144 155 156 154 154 149 149 155 155 149 139 143 140 136 126 122 112 98 95 95 88 100 113 115 115
356 1 1 3 1 356 12 20 29 33 31 40 47 56 75 79 81 96 114 119 134 151 156 150 153 163 159 155 148 150 148 136 123 132 115 98 87 90 83 100 110 113 115
347 352 359 359 1 5 16 21 30 34 40 40 46 56 77 76 89 107 106 96 88 90 129 144 156 163 159 154 151 144 134 113 106 106 102 106 93 82 74 81 104 112 116
348 349 355 6 8 0 14 22 32 29 42 38 41 51 63 78 100 111 111 109 98 78 80 104 120 129 142 142 138 133 134 136 133 118 92 107 118 94 69 53 81 106 117
340 349 14 14 12 4 11 22 32 36 42 37 39 40 42 66 88 106 115 118 112 98 94 90 85 93 117 136 140 144 147 147 139 131 137 116 139 133 112 75 65 100 110
Height
1535 1536 1537 1537 1538 1539 1541 1542 1543 1544 1546 1548 1549 1550 1552 1553 1555 1556 1557 1558 1558 1558 1557 1557 1558 1559 1560 1562 1563 1564 1565 1566 1568 1569 1570 1571 1572 1573 1574 1575 1575 1576 1576
1532 1532 1533 1534 1535 1536 1537 1539 1541 1543 1544 1546 1547 1548 1550 1551 1553 1554 1556 1557 1557 1557 1556 1556 1557 1558 1559 1561 1562 1563 1565 1566 1567 1569 1570 1571 1572 1573 1574 1575 1576 1576 1577
1528 1528 1529 1530 1531 1533 1534 1536 1537 1540 1541 1542 1544 1545 1547 1549 1550 1552 1554 1555 1556 1556 1556 1555 1556 1557 1558 1559 1561 1562 1564 1565 1567 1568 1569 1571 1572 1573 1574 1575 1576 1576 1577
1524 1524 1525 1526 1527 1529 1530 1531 1533 1535 1537 1539 1540 1542 1543 1545 1547 1550 1552 1553 1554 1555 1555 1555 1555 1556 1557 1558 1560 1561 1563 1564 1566 1567 1569 1570 1571 1572 1573 1574 1575 1575 1576
1519 1519 1520 1521 1522 1524 1525 1527 1528 1530 1532 1535 1537 1538 1540 1542 1544 1547 1549 1551 1552 1553 1554 1554 1554 1555 1555 1557 1558 1560 1561 1563 1564 1566 1567 1569 1570 1571 1572 1573 1574 1574 1575
1514 1514 1515 1516 1517 1519 1520 1522 1524 1525 1528 1531 1533 1535 1537 1539 1541 1544 1546 1548 1550 1551 1552 1553 1553 1553 1554 1555 1557 1558 1560 1561 1563 1565 1566 1567 1569 1570 1571 1572 1572 1573 1574
1508 1509 1510 1511 1512 1514 1515 1517 1519 1521 1523 1526 1529 1531 1533 1536 1538 1540 1542 1544 1547 1548 1550 1551 1552 1553 1553 1554 1555 1557 1558 1560 1561 1563 1564 1566 1567 1568 1569 1570 1571 1572 1572
1503 1503 1504 1506 1507 1508 1510 1512 1514 1516 1518 1521 1524 1527 1529 1532 1534 1536 1539 1541 1543 1545 1547 1549 1550 1551 1552 1553 1554 1555 1557 1558 1560 1561 1563 1564 1565 1566 1568 1568 1569 1570 1570
1498 1498 1499 1500 1501 1503 1504 1506 1509 1511 1513 1516 1519 1522 1524 1525 1529 1532 1534 1536 1539 1541 1543 1545 1547 1549 1551 1552 1553 1554 1555 1557 1558 1560 1561 1562 1564 1565 1566 1567 1568 1568 1569
1493 1493 1493 1494 1495 1497 1498 1500 1503 1505 1508 1510 1513 1516 1519 1520 1523 1526 1529 1532 1535 1537 1539 1542 1544 1546 1548 1550 1551 1553 1554 1555 1557 1558 1560 1561 1562 1563 1564 1565 1566 1567 1567
1489 1489 1489 1489 1489 1491 1492 1494 1496 1499 1502 1504 1507 1510 1513 1515 1518 1520 1523 1527 1530 1532 1535 1537 1540 1542 1544 1547 1549 1551 1552 1554 1555 1557 1558 1560 1561 1562 1563 1564 1565 1566 1566
1486 1485 1484 1484 1484 1485 1486 1488 1490 1493 1495 1498 1501 1504 1506 1509 1512 1515 1518 1521 1524 1527 1530 1533 1535 1538 1541 1543 1545 1548 1550 1552 1554 1555 1557 1558 1560 1561 1562 1563 1564 1564 1565
1484 1482 1481 1480 1480 1480 1481 1482 1484 1486 1489 1492 1495 1497 1501 1504 1507 1510 1514 1517 1520 1522 1525 1528 1530 1533 1536 1539 1542 1545 1547 1550 1552 1553 1555 1557 1558 1560 1561 1562 1562 1563 1564
1483 1481 1479 1477 1476 1476 1476 1477 1478 1480 1483 1486 1488 1491 1495 1498 1501 1504 1507 1511 1515 1518 1520 1523 1525 1528 1531 1534 1538 1541 1544 1547 1549 1551 1553 1555 1557 1558 1560 1561 1562 1562 1563
1483 1480 1478 1476 1474 1473 1473 1474 1475 1476 1478 1480 1483 1486 1489 1492 1495 1498 1501 1505 1510 1512 1515 1518 1521 1524 1527 1530 1534 1537 1540 1543 1546 1549 1551 1553 1555 1556 1558 1560 1561 1561 1562
1484 1481 1479 1476 1474 1472 1472 1471 1472 1473 1475 1477 1479 1481 1484 1486 1489 1492 1496 1499 1503 1508 1510 1513 1517 1519 1523 1526 1530 1533 1536 1539 1543 1545 1548 1550 1553 1555 1556 1558 1559 1560 1561
1485 1482 1479 1477 1474 1472 1471 1471 1471 1472 1473 1474 1475 1478 1480 1482 1484 1487 1491 1494 1497 1501 1505 1509 1512 1516 1519 1522 1525 1529 1533 1536 1539 1542 1545 1547 1550 1552 1554 1556 1557 1559 1559
1487 1484 1481 1478 1476 1474 1472 1471 1471 1471 1471 1472 1473 1474 1476 1478 1481 1483 1486 1489 1492 1496 1500 1504 1508 1511 1515 1519 1522 1525 1529 1532 1535 1538 1541 1544 1547 1549 1552 1554 1555 1557 1558
1488 1485 1482 1479 1477 1475 1474 1472 1471 1471 1471 1471 1472 1473 1474 1476 1478 1480 1483 1486 1489 1492 1496 1500 1504 1507 1511 1515 1519 1522 1526 1529 1532 1535 1538 1541 1544 1547 1549 1552 1553 1555 1556
1489 1486 1483 1480 1478 1476 1475 1473 1472 1471 1471 1471 1471 1472 1474 1475 1477 1479 1481 1484 1486 1489 1492 1497 1500 1504 1508 1512 1516 1519 1523 1526 1529 1532 1536 1539 1542 1545 1547 1550 1551 1553 1554
1490 1487 1485 1482 1479 1477 1475 1474 1473 1472 1472 1471 1472 1473 1474 1475 1477 1478 1480 1482 1484 1487 1490 1493 1497 1501 1504 1508 1512 1516 1520 1523 1527 1530 1533 1536 1539 1542 1545 1547 1549 1551 1552
1492 1489 1486 1483 1480 1478 1477 1476 1474 1473 1473 1473 1473 1474 1475 1476 1477 1479 1480 1482 1484 1486 1489 1492 1495 1498 1502 1505 1509 1513 1517 1521 1525 1529 1532 1535 1538 1541 1543 1546 1547 1549 1550
1494 1491 1488 1485 1482 1480 1478 1477 1476 1475 1475 1475 1475 1475 1476 1477 1478 1479 1481 1482 1484 1486 1489 1491 1494 1497 1500 1503 1507 1511 1516 1519 1523 1527 1531 1534 1537 1540 1542 1544 1546 1548 1549
1495 1492 1489 1487 1484 1482 1480 1478 1477 1477 1476 1476 1476 1477 1477 1478 1479 1480 1481 1483 1485 1487 1488 1491 1493 1496 1499 1502 1506 1510 1514 1518 1523 1527 1531 1533 1537 1539 1542 1544 1545 1547 1548
1496 1494 1491 1488 1486 1483 1481 1480 1479 1478 1478 1477 1478 1478 1479 1479 1480 1481 1482 1484 1485 1487 1489 1491 1493 1496 1498 1502 1505 1509 1513 1517 1521 1525 1529 1532 1535 1538 1541 1543 1545 1546 1548
1497 1495 1492 1490 1487 1485 1483 1481 1481 1480 1479 1479 1479 1479 1480 1481 1482 1483 1484 1485 1486 1487 1489 1491 1493 1496 1498 1501 1505 1508 1512 1516 1519 1524 1528 1531 1534 1537 1540 1543 1544 1546 1547